Date String (YYYY-MM-DD hh:mm:ss) UTC,Instrument flags,Ambient pressure (hPa),Sample flow (lpm),Bypass flow (lpm),Sample temperature (°C),Ambient temperature (°C),ASC tube jacket temperature (°C),LED temperature (°C),Box temperature (°C),Sample RH (%),Span deviation,Mass concentration (μg/m³),Mass concentration (μg/m³),Mass concentration (μg/m³)
DateTimeUTC,F1_M11,P_M11,Q1_M11,Q2_M11,T1_M11,T2_M11,T3_M11,T4_M11,T5_M11,U1_M11,ZSPAN_M11,X0_M11,X2_M11,X1_M11
2022-06-12 06:00:00,,0822.2,4.99,0.00,29.1,28.2,00.0,37.9,31.1,17.4,0000.0,0012.67,0005.12,0003.74
2022-06-12 06:01:00,,0822.2,5.01,0.00,29.1,28.3,00.0,38.0,31.1,17.1,0000.0,0012.61,0005.09,0003.74
2022-06-12 06:02:00,,0822.2,4.99,0.00,29.2,28.3,00.0,38.0,31.2,16.9,0000.0,0012.95,0005.15,0003.74
2022-06-12 06:03:00,,0822.2,5.00,0.00,29.2,28.4,00.0,38.0,31.2,16.8,0000.0,0012.99,0005.17,0003.75
2022-06-12 06:04:00,,0822.2,5.01,0.00,29.2,28.3,00.0,38.0,31.2,16.7,0000.0,0012.74,0005.15,0003.76
2022-06-12 06:05:00,,0822.1,5.01,0.00,29.2,27.6,00.0,37.9,31.0,16.7,0000.0,0012.50,0005.11,0003.76
2022-06-12 06:06:00,,0822.1,5.00,0.00,29.1,27.2,00.0,37.9,30.9,16.8,0000.0,0012.35,0005.14,0003.77
2022-06-12 06:07:00,,0822.1,4.99,0.00,29.1,27.1,00.0,37.9,30.8,16.8,0000.0,0012.29,0005.11,0003.77
2022-06-12 06:08:00,,0822.0,5.01,0.00,29.0,27.2,00.0,37.9,30.8,16.9,0000.0,0012.96,0005.11,0003.77
2022-06-12 06:09:00,,0822.0,5.00,0.00,29.0,27.3,00.0,37.9,30.8,16.9,0000.0,0012.94,0005.10,0003.77
2022-06-12 06:10:00,,0822.0,5.00,0.00,29.0,27.4,00.0,37.9,30.9,16.8,0000.0,0013.38,0005.12,0003.78
2022-06-12 06:11:00,,0822.0,5.00,0.00,29.0,27.5,00.0,37.9,30.9,16.8,0000.0,0013.38,0005.12,0003.77
2022-06-12 06:12:00,,0821.9,5.00,0.00,29.0,27.7,00.0,37.9,30.9,16.8,0000.0,0012.80,0005.10,0003.78
2022-06-12 06:13:00,,0821.9,5.00,0.00,29.0,27.8,00.0,37.9,31.0,17.0,0000.0,0012.16,0005.07,0003.78
2022-06-12 06:14:00,,0821.9,5.00,0.00,29.0,27.9,00.0,37.9,31.0,17.2,0000.0,0012.33,0005.08,0003.78
2022-06-12 06:15:00,,0821.9,5.00,0.00,29.1,28.0,00.0,37.9,31.0,17.1,0000.0,0012.71,0005.05,0003.77
2022-06-12 06:16:00,,0822.1,5.00,0.00,29.1,28.1,00.0,37.9,31.1,17.1,0000.0,0013.42,0005.06,0003.76
2022-06-12 06:17:00,,0822.2,4.99,0.00,29.1,28.2,00.0,38.0,31.1,17.1,0000.0,0013.47,0005.09,0003.75
2022-06-12 06:18:00,,0821.9,5.00,0.00,29.2,28.3,00.0,38.0,31.1,16.9,0000.0,0013.24,0005.14,0003.76
2022-06-12 06:19:00,,0821.8,5.00,0.00,29.2,28.3,00.0,38.0,31.2,16.8,0000.0,0012.74,0005.16,0003.76
2022-06-12 06:20:00,,0821.9,5.00,0.00,29.2,28.4,00.0,38.0,31.2,17.0,0000.0,0012.46,0005.16,0003.77
2022-06-12 06:21:00,,0821.8,4.99,0.00,29.2,28.4,00.0,38.0,31.2,17.3,0000.0,0011.94,0005.14,0003.76
2022-06-12 06:22:00,,0821.8,5.00,0.00,29.3,28.4,00.0,38.0,31.3,17.2,0000.0,0011.60,0005.15,0003.77
2022-06-12 06:23:00,,0821.8,5.00,0.00,29.2,27.8,00.0,38.0,31.1,16.9,0000.0,0011.70,0005.18,0003.77
2022-06-12 06:24:00,,0821.8,5.00,0.00,29.2,27.3,00.0,37.9,31.0,17.3,0000.0,0011.72,0005.19,0003.77
2022-06-12 06:25:00,,0821.8,5.01,0.00,29.1,27.2,00.0,37.9,30.9,17.2,0000.0,0011.90,0005.20,0003.75
2022-06-12 06:26:00,,0821.7,5.00,0.00,29.0,27.3,00.0,37.9,30.8,17.1,0000.0,0012.47,0005.20,0003.74
2022-06-12 06:27:00,,0821.7,5.00,0.00,29.0,27.3,00.0,37.9,30.9,17.1,0000.0,0011.76,0005.24,0003.74
2022-06-12 06:28:00,,0821.7,4.99,0.00,29.0,27.5,00.0,37.9,30.9,17.3,0000.0,0011.82,0005.25,0003.74
2022-06-12 06:29:00,,0821.7,5.01,0.00,29.0,27.6,00.0,37.9,30.9,17.2,0000.0,0012.29,0005.19,0003.71
2022-06-12 06:30:00,,0821.7,5.01,0.00,29.0,27.7,00.0,37.9,31.0,17.3,0000.0,0012.77,0005.21,0003.70
2022-06-12 06:31:00,,0821.7,5.00,0.00,29.1,27.8,00.0,37.9,31.0,17.6,0000.0,0012.83,0005.22,0003.68
2022-06-12 06:32:00,,0821.7,5.02,0.00,29.1,27.9,00.0,37.9,31.0,17.3,0000.0,0012.96,0005.22,0003.68
2022-06-12 06:33:00,,0821.7,5.01,0.00,29.1,28.0,00.0,38.0,31.1,17.1,0000.0,0012.80,0005.16,0003.66
2022-06-12 06:34:00,,0821.7,4.98,0.00,29.1,28.1,00.0,38.0,31.1,17.1,0000.0,0012.74,0005.12,0003.63
2022-06-12 06:35:00,,0821.7,5.00,0.00,29.1,28.2,00.0,38.0,31.1,17.2,0000.0,0012.96,0005.13,0003.62
2022-06-12 06:36:00,,0821.7,5.00,0.00,29.2,28.2,00.0,38.0,31.1,17.3,0000.0,0012.77,0005.13,0003.62
2022-06-12 06:37:00,,0821.6,5.00,0.00,29.2,28.3,00.0,38.0,31.2,17.4,0000.0,0012.00,0005.13,0003.63
2022-06-12 06:38:00,,0821.7,5.01,0.00,29.2,28.3,00.0,38.0,31.2,17.3,0000.0,0011.88,0005.09,0003.63
2022-06-12 06:39:00,,0821.6,4.99,0.00,29.3,28.4,00.0,38.1,31.2,17.1,0000.0,0012.48,0005.08,0003.62
2022-06-12 06:40:00,,0821.5,5.00,0.00,29.3,28.4,00.0,38.1,31.3,16.6,0000.0,0011.99,0005.04,0003.63
2022-06-12 06:41:00,,0821.5,5.00,0.00,29.3,28.5,00.0,38.1,31.3,16.5,0000.0,0012.16,0005.00,0003.64
2022-06-12 06:42:00,,0821.5,5.00,0.00,29.3,28.5,00.0,38.1,31.3,16.4,0000.0,0012.30,0004.96,0003.64
2022-06-12 06:43:00,,0821.5,5.00,0.00,29.3,28.0,00.0,38.1,31.2,16.4,0000.0,0012.73,0004.95,0003.64
2022-06-12 06:44:00,,0821.5,5.01,0.00,29.3,27.4,00.0,38.0,31.0,16.2,0000.0,0012.81,0004.98,0003.65
2022-06-12 06:45:00,,0821.5,4.99,0.00,29.2,27.2,00.0,38.0,30.9,16.4,0000.0,0012.87,0004.95,0003.66
2022-06-12 06:46:00,,0821.4,5.00,0.00,29.1,27.2,00.0,38.0,30.9,16.6,0000.0,0013.31,0004.92,0003.67
2022-06-12 06:47:00,,0821.4,5.01,0.00,29.1,27.3,00.0,38.0,30.9,16.8,0000.0,0013.37,0004.92,0003.66
2022-06-12 06:48:00,,0821.4,5.00,0.00,29.1,27.4,00.0,38.0,30.9,16.8,0000.0,0013.50,0004.87,0003.64
2022-06-12 06:49:00,,0821.4,4.98,0.00,29.1,27.5,00.0,38.0,31.0,16.8,0000.0,0013.82,0004.85,0003.64
2022-06-12 06:50:00,,0821.4,5.00,0.00,29.1,27.7,00.0,38.0,31.0,16.8,0000.0,0013.38,0004.84,0003.63
2022-06-12 06:51:00,,0821.4,5.01,0.00,29.1,27.8,00.0,38.0,31.0,16.9,0000.0,0013.80,0004.93,0003.64
2022-06-12 06:52:00,,0821.4,5.00,0.00,29.1,27.9,00.0,38.0,31.0,16.9,0000.0,0013.19,0004.97,0003.64
2022-06-12 06:53:00,,0821.4,5.00,0.00,29.1,28.0,00.0,38.0,31.1,16.9,0000.0,0013.12,0004.98,0003.63
2022-06-12 06:54:00,,0821.4,5.00,0.00,29.2,28.1,00.0,38.0,31.1,16.8,0000.0,0012.86,0004.94,0003.63
2022-06-12 06:55:00,,0821.4,5.01,0.00,29.2,28.2,00.0,38.0,31.1,16.7,0000.0,0013.70,0004.95,0003.62
2022-06-12 06:56:00,,0821.5,5.01,0.00,29.2,28.2,00.0,38.0,31.2,16.7,0000.0,0014.24,0004.97,0003.62
2022-06-12 06:57:00,,0821.5,5.00,0.00,29.2,28.3,00.0,38.1,31.2,16.8,0000.0,0013.42,0004.96,0003.62
2022-06-12 06:58:00,,0821.5,5.01,0.00,29.3,28.4,00.0,38.1,31.2,16.8,0000.0,0013.32,0004.94,0003.63
2022-06-12 06:59:00,,0821.6,4.99,0.00,29.3,28.4,00.0,38.1,31.3,16.9,0000.0,0013.20,0004.96,0003.64
